Starlink 3952

operational
NORAD ID: 52534 Int'l Des: 2022-051 Owner: SPXS Country: US Constellation: starlink
LEOCIRCULAR

Über Starlink 3952

Beschreibung wird geladen...

Live-Position

3D-Globus wird geladen...

Nächste Überflüge

Höhenverlauf

Altitude vs Time

uPlot chart will show altitude changes over time

Zweizeiliger Elementsatz

1 52534U 22051B 25347.73415312 .00001415 00000-0 10695-3 0 9991
2 52534 53.2166 154.9889 0001354 90.8061 269.3086 15.08840280199206
Epoch: 13. Dez. 2025 • Age: 20 hours

Aktueller Status

Höhe 546.2 km
Geschwindigkeit 7.59 km/s
Subsatellitenpunkt -21.56°S, 60.7°E
Startdatum 13. Mai 2022
Alter 3.5 years
Typ internet

Technische Details

Klassifizierung Payload
Masse 297.00 kg
Trockenmasse 275.00 kg
Gesamtmasse 297.00 kg
Länge 0.20 m
Durchmesser 2.80 m
Spannweite 9.00 m
Form Box + pan
Hersteller SPXS
Bus-Typ Starlink
Phasenstatus In Orbit
Besitzer/Staat SPXS/US

Große Konstellationen

Loading constellations...